Location: Kuffner-Sternwarte
(48.2130°N, 16.2960°E)
Time: 08:14:44
(UTC+02:00)

COROT - Pass Details

Date: 18 January 2018
Orbit: 602 x 887 km, 90.0° (Epoch: 16 July)

Event Time Altitude Azimuth Distance (km) Brightness Sun altitude
Rises 17:18:56 0° 186° (S) 3,123 9.6 -7.8°
Reaches altitude 10° 17:21:20 10° 190° (S) 2,162 8.8 -8.1°
Maximum altitude 17:26:01 59° 271° (W) 768 6.4 -8.9°
Drops below altitude 10° 17:30:25 10° 351° (N) 2,031 8.1 -9.5°
Sets 17:32:36 0° 355° (N) 2,917 8.9 -9.9°
